FW7828 Weather Reports


time (UTC)temp
C
wind
direction
speed
KPH
gust
KPH
rain 1hr
cm
rain 24hr
cm
rain mn
cm
humidity
%
barometer
mb
20260504202637 23 153 3.2 3.2 0.00 0.00 0.00 63 1013.1
20260504202134 23 163 4.8 4.8 0.00 0.00 0.00 59 1013.2
20260504201631 23 178 8.0 9.7 0.00 0.00 0.00 54 1013.1
20260504201129 24 198 4.8 4.8 0.00 0.00 0.00 50 1013.1
20260504200626 25 149 9.7 11.3 0.00 0.00 0.00 50 1013.1
20260504200122 25 191 8.0 11.3 0.00 0.00 0.00 51 1013.0
20260504195618 24 217 4.8 4.8 0.00 0.00 0.00 53 1012.9
20260504195115 24 176 4.8 8.0 0.00 0.00 0.00 50 1013.0
20260504194612 24 180 6.4 9.7 0.00 0.00 0.00 53 1013.1
20260504194107 24 241 1.6 3.2 0.00 0.00 0.00 49 1013.0
20260504193604 24 210 3.2 4.8 0.00 0.00 0.00 48 1013.0
20260504193102 25 175 4.8 9.7 0.00 0.00 0.00 51 1013.2
20260504192600 25 189 1.6 4.8 0.00 0.00 0.00 43 1013.0
20260504192058 25 217 3.2 3.2 0.00 0.00 0.00 49 1013.4
20260504191556 24 180 3.2 3.2 0.00 0.00 0.00 53 1013.5
20260504191052 23 185 4.8 8.0 0.00 0.00 0.00 53 1013.5
20260504190548 23 149 4.8 4.8 0.00 0.00 0.00 54 1013.8
20260504190044 25 156 6.4 9.7 0.00 0.00 0.00 51 1013.6
20260504185542 24 182 4.8 4.8 0.00 0.00 0.00 52 1013.6
20260504185038 23 195 3.2 3.2 0.00 0.00 0.00 49 1014.1
20260504184533 24 166 4.8 8.0 0.00 0.00 0.00 49 1014.0
20260504184029 23 131 4.8 4.8 0.00 0.00 0.00 51 1014.0
20260504183526 24 178 1.6 1.6 0.00 0.00 0.00 48 1014.2
20260504183025 24 119 3.2 3.2 0.00 0.00 0.00 47 1014.3
20260504182521 23 158 3.2 4.8 0.00 0.00 0.00 47 1014.4
20260504182018 23 184 0.0 1.6 0.00 0.00 0.00 47 1014.4
20260504181515 23 221 3.2 8.0 0.00 0.00 0.00 50 1014.5
20260504181014 23 172 1.6 4.8 0.00 0.00 0.00 52 1014.3
20260504180512 23 84 1.6 3.2 0.00 0.00 0.00 50 1014.6
20260504180011 23 132 1.6 3.2 0.00 0.00 0.00 55 1014.6
20260504175508 23 160 4.8 4.8 0.00 0.00 0.00 53 1014.6
20260504175005 23 185 4.8 4.8 0.00 0.00 0.00 50 1014.8
20260504174502 23 89 1.6 3.2 0.00 0.00 0.00 51 1014.9
20260504173959 23 159 6.4 8.0 0.00 0.00 0.00 53 1015.0
20260504173456 22 120 1.6 1.6 0.00 0.00 0.00 54 1015.1
20260504172953 22 137 4.8 4.8 0.00 0.00 0.00 60 1015.2
20260504172449 22 169 4.8 8.0 0.00 0.00 0.00 57 1015.1
20260504171946 22 128 1.6 3.2 0.00 0.00 0.00 56 1015.2
20260504171443 22 151 3.2 3.2 0.00 0.00 0.00 56 1015.2
20260504170940 22 160 3.2 3.2 0.00 0.00 0.00 57 1015.3
20260504170436 22 157 4.8 4.8 0.00 0.00 0.00 58 1015.6
20260504160355 21 170 6.4 8.0 0.00 0.00 0.00 58 1016.0
20260504150820 20 176 0.0 3.2 0.00 0.00 0.00 60 1016.4
20260504150316 20 159 1.6 1.6 0.00 0.00 0.00 61 1016.4
20260504141247 18 229 0.0 1.6 0.00 0.00 0.00 67 1016.4
20260504140743 18 186 4.8 4.8 0.00 0.00 0.00 66 1016.2
20260504140239 18 186 6.4 8.0 0.00 0.00 0.00 68 1016.5
20260504130708 15 98 1.6 1.6 0.00 0.00 0.00 76 1017.0
20260504130203 15 153 0.0 0.0 0.00 0.00 0.00 76 1016.8
20260504120127 13 215 0.0 1.6 0.00 0.00 0.00 83 1017.2
20260504110555 12 180 3.2 4.8 0.00 0.00 0.00 86 1017.4
20260504100516 11 229 0.0 0.0 0.00 0.00 0.00 88 1016.7
20260504081904 10 323 0.0 0.0 0.00 0.00 0.00 93 1017.3
20260504081400 10 331 0.0 0.0 0.00 0.00 0.00 93 1017.2
20260504080856 10 337 0.0 0.0 0.00 0.00 0.00 93 1017.1
20260504080353 10 339 0.0 0.0 0.00 0.00 0.00 93 1017.2
20260504070321 10 328 0.0 0.0 0.00 0.00 0.00 91 1017.4
20260504060241 13 190 4.8 8.0 0.00 0.00 0.00 85 1017.2
20260504050709 11 1 0.0 0.0 0.00 0.00 0.00 88 1017.4
20260504050206 11 7 0.0 0.0 0.00 0.00 0.00 88 1017.4
20260504045703 11 7 0.0 0.0 0.00 0.00 0.00 88 1017.5
20260504045204 11 5 0.0 0.0 0.00 0.00 0.00 88 1017.4
20260504044702 11 5 0.0 0.0 0.00 0.00 0.00 88 1017.4
20260504044159 11 1 0.0 0.0 0.00 0.00 0.00 88 1017.3
20260504043655 11 73 0.0 0.0 0.00 0.00 0.00 88 1017.6
20260504043152 11 105 0.0 0.0 0.00 0.00 0.00 88 1017.4
20260504042650 11 40 0.0 0.0 0.00 0.00 0.00 87 1017.6
20260504042146 11 27 0.0 0.0 0.00 0.00 0.00 86 1017.5
20260504041642 11 32 0.0 0.0 0.00 0.00 0.00 86 1017.5
20260504041138 11 61 0.0 0.0 0.00 0.00 0.00 86 1017.4
20260504040636 11 104 1.6 1.6 0.00 0.00 0.00 87 1017.3
20260504040133 10 10 0.0 0.0 0.00 0.00 0.00 86 1017.3
20260504035629 11 344 0.0 0.0 0.00 0.00 0.00 85 1017.4
20260504035126 11 354 0.0 0.0 0.00 0.00 0.00 84 1017.3
20260504034624 11 341 0.0 0.0 0.00 0.00 0.00 84 1017.3
20260504034120 11 336 0.0 0.0 0.00 0.00 0.00 82 1017.4
20260504033618 11 345 0.0 0.0 0.00 0.00 0.00 82 1017.5
20260504033115 11 334 0.0 1.6 0.00 0.00 0.00 82 1017.4
20260504032612 12 293 0.0 0.0 0.00 0.00 0.00 83 1017.5
20260504032109 12 26 0.0 0.0 0.00 0.00 0.00 80 1017.5
20260504031606 12 260 0.0 0.0 0.00 0.00 0.00 82 1017.6
20260504031102 11 123 6.4 8.0 0.00 0.00 0.00 83 1017.7
20260504030559 12 123 1.6 3.2 0.00 0.00 0.00 84 1017.7
20260504030056 12 133 0.0 0.0 0.00 0.00 0.00 83 1017.8
20260504025553 12 133 3.2 3.2 0.00 0.00 0.00 82 1017.6
20260504025049 12 23 0.0 0.0 0.00 0.00 0.00 82 1017.9
20260504024547 12 132 4.8 8.0 0.00 0.00 0.00 81 1017.9
20260504024043 12 16 0.0 0.0 0.00 0.00 0.00 80 1018.0
20260504023540 12 156 4.8 8.0 0.00 0.00 0.00 81 1017.6
20260504023036 11 150 3.2 4.8 0.00 0.00 0.00 86 1017.5
20260504022532 10 344 0.0 0.0 0.00 0.00 0.00 82 1017.6
20260504022029 10 331 0.0 0.0 0.00 0.00 0.00 82 1017.6
20260504021526 8 352 0.0 0.0 0.00 0.00 0.00 77 1017.5
20260504021023 8 5 0.0 0.0 0.00 0.00 0.00 74 1017.5
20260504020520 8 9 0.0 0.0 0.00 0.00 0.00 75 1017.5
20260504020016 8 318 0.0 0.0 0.00 0.00 0.00 75 1017.4
20260504015513 8 113 1.6 1.6 0.00 0.00 0.00 74 1017.4
20260504015009 9 348 0.0 0.0 0.00 0.00 0.00 75 1017.2
20260504014505 9 345 1.6 1.6 0.00 0.00 0.00 74 1017.0
20260504014002 9 338 1.6 1.6 0.00 0.00 0.00 73 1017.1
20260504013500 9 340 1.6 1.6 0.00 0.00 0.00 73 1016.8
20260504012955 9 336 1.6 1.6 0.00 0.00 0.00 72 1016.5
20260504012454 9 342 0.0 0.0 0.00 0.00 0.00 71 1016.7
20260504011952 9 344 0.0 0.0 0.00 0.00 0.00 71 1016.6
20260504011448 9 353 0.0 0.0 0.00 0.00 0.00 71 1016.6
20260504010944 10 353 0.0 0.0 0.00 0.00 0.00 71 1016.3
20260504010440 10 346 0.0 0.0 0.00 0.00 0.00 72 1016.3
20260504005936 10 340 0.0 0.0 0.00 0.00 0.00 71 1016.2
20260504005433 10 346 0.0 0.0 0.00 0.00 0.00 71 1016.5
20260504004931 10 346 0.0 0.0 0.00 0.00 0.00 70 1016.2
20260504004428 10 344 0.0 0.0 0.00 0.00 0.00 69 1016.0
20260504003925 10 356 0.0 0.0 0.00 0.00 0.00 68 1016.0
20260504003421 10 334 1.6 1.6 0.00 0.00 0.00 68 1016.2
20260504002918 11 335 1.6 1.6 0.00 0.00 0.00 67 1015.9
20260504002415 11 351 1.6 1.6 0.00 0.00 0.00 66 1015.9
20260504001913 11 333 1.6 1.6 0.00 0.00 0.00 66 1015.9
20260504001410 11 340 1.6 1.6 0.00 0.00 0.00 66 1016.0
20260504000906 11 337 0.0 0.0 0.00 0.00 0.00 64 1015.8
20260504000404 12 339 0.0 0.0 0.00 0.00 0.00 66 1015.7
20260503235901 12 330 1.6 1.6 0.00 0.00 0.00 66 1015.8
20260503235359 12 321 1.6 1.6 0.00 0.00 0.00 65 1015.8
20260503234855 12 326 0.0 1.6 0.00 0.00 0.00 62 1015.8
20260503234353 13 321 1.6 1.6 0.00 0.00 0.00 62 1015.6
20260503233851 13 314 0.0 0.0 0.00 0.00 0.00 58 1015.5
20260503233347 14 314 0.0 0.0 0.00 0.00 0.00 57 1015.6
20260503232843 15 2 0.0 0.0 0.00 0.00 0.00 51 1015.5
20260503232341 15 71 0.0 0.0 0.00 0.00 0.00 51 1015.3
20260503231839 15 78 0.0 0.0 0.00 0.00 0.00 48 1015.6
20260503231336 15 293 0.0 0.0 0.00 0.00 0.00 50 1015.4
20260503230831 15 298 0.0 0.0 0.00 0.00 0.00 54 1015.3
20260503230329 16 297 0.0 0.0 0.00 0.00 0.00 49 1015.5
20260503225826 16 114 0.0 0.0 0.00 0.00 0.00 43 1015.2
20260503225322 16 149 0.0 0.0 0.00 0.00 0.00 43 1015.4
20260503224818 16 173 0.0 1.6 0.00 0.00 0.00 44 1015.0
20260503224316 16 305 1.6 1.6 0.00 0.00 0.00 42 1015.2
20260503223814 16 38 0.0 0.0 0.00 0.00 0.00 43 1015.3
20260503223311 16 112 4.8 4.8 0.00 0.00 0.00 39 1015.0
20260503222807 17 139 0.0 0.0 0.00 0.00 0.00 44 1015.2
20260503222306 17 260 0.0 0.0 0.00 0.00 0.00 40 1015.3
20260503221803 17 130 1.6 3.2 0.00 0.00 0.00 41 1015.1
20260503221301 17 107 0.0 1.6 0.00 0.00 0.00 40 1015.2
20260503220757 17 148 1.6 3.2 0.00 0.00 0.00 38 1015.1
20260503220254 17 137 3.2 4.8 0.00 0.00 0.00 39 1015.2
20260503215751 17 277 1.6 3.2 0.00 0.00 0.00 40 1015.3
20260503215248 17 203 0.0 0.0 0.00 0.00 0.00 41 1015.0
20260503214746 17 319 0.0 0.0 0.00 0.00 0.00 42 1015.2
20260503214242 17 56 0.0 0.0 0.00 0.00 0.00 40 1015.2
20260503213741 17 53 1.6 1.6 0.00 0.00 0.00 40 1015.1
20260503213238 17 136 3.2 3.2 0.00 0.00 0.00 40 1014.9
20260503212734 17 123 1.6 1.6 0.00 0.00 0.00 41 1015.1
20260503212232 17 126 1.6 1.6 0.00 0.00 0.00 41 1015.0
20260503211729 17 182 4.8 4.8 0.00 0.00 0.00 41 1015.0
20260503211225 17 150 6.4 8.0 0.00 0.00 0.00 40 1014.9
20260503210721 17 201 3.2 3.2 0.00 0.00 0.00 41 1015.0
20260503210219 17 22 1.6 1.6 0.00 0.00 0.00 39 1014.9
20260503205714 17 173 4.8 4.8 0.00 0.00 0.00 40 1015.0
20260503205210 17 25 1.6 1.6 0.00 0.00 0.00 41 1014.9
20260503204707 18 160 1.6 3.2 0.00 0.00 0.00 42 1015.1
20260503204204 17 340 1.6 1.6 0.00 0.00 0.00 42 1014.9
20260503203701 18 185 4.8 8.0 0.00 0.00 0.00 42 1015.0
20260503203159 18 206 3.2 3.2 0.00 0.00 0.00 39 1015.0